DO5RS-5 Weather Reports


time (UTC)temp
C
wind
direction
speed
KPH
gust
KPH
rain 1hr
cm
rain 24hr
cm
rain mn
cm
humidity
%
barometer
mb
20260903085905 18 0.0 0.0 0.00 0.00 0.00 72 1023.1
20260903084906 18 0.0 0.0 0.00 0.00 0.00 68 1023.2
20260903083906 18 0.0 0.0 0.00 0.00 0.00 69 1023.3
20260903082906 18 0.0 0.0 0.00 0.00 0.00 72 1023.4
20260903081905 17 0.0 0.0 0.00 0.00 0.00 73 1023.5
20260903080904 17 0.0 0.0 0.00 0.00 0.00 73 1023.6
20260903075904 17 0.0 0.0 0.00 0.00 0.00 73 1023.4
20260903074903 17 0.0 0.0 0.00 0.00 0.00 73 1023.3
20260903073905 17 0.0 0.0 0.00 0.00 0.00 73 1023.2
20260903072905 17 0.0 0.0 0.00 0.00 0.00 73 1023.4
20260903071905 17 0.0 0.0 0.00 0.00 0.00 74 1023.3
20260903070906 16 0.0 0.0 0.00 0.00 0.00 76 1023.7
20260903065906 16 0.0 0.0 0.00 0.00 0.00 75 1023.5
20260903064907 16 0.0 0.0 0.00 0.00 0.00 75 1023.5
20260903063907 16 0.0 0.0 0.00 0.00 0.00 76 1023.4
20260903062906 16 0.0 0.0 0.00 0.00 0.00 75 1023.4
20260903061909 16 0.0 0.0 0.00 0.00 0.00 75 1023.3
20260903060907 16 0.0 0.0 0.00 0.00 0.00 76 1023.8
20260903055907 16 0.0 0.0 0.00 0.00 0.00 76 1023.9
20260903054906 16 0.0 0.0 0.00 0.00 0.00 76 1024.0
20260903053904 16 0.0 0.0 0.00 0.00 0.00 76 1024.0
20260903052904 16 0.0 0.0 0.00 0.00 0.00 76 1023.6
20260903051904 16 0.0 0.0 0.00 0.00 0.00 76 1023.7
20260903050904 16 0.0 0.0 0.00 0.00 0.00 75 1023.8
20260903045905 15 0.0 0.0 0.00 0.00 0.00 76 1024.1
20260903044905 15 0.0 0.0 0.00 0.00 0.00 76 1024.0
20260903043909 15 0.0 0.0 0.00 0.00 0.00 75 1024.1
20260903041906 15 0.0 0.0 0.00 0.00 0.00 75 1024.0
20260903040906 15 0.0 0.0 0.00 0.00 0.00 74 1024.0
20260903035904 15 0.0 0.0 0.00 0.00 0.00 75 1024.0
20260903034904 15 0.0 0.0 0.00 0.00 0.00 74 1023.9
20260903033906 15 0.0 0.0 0.00 0.00 0.00 75 1024.1
20260903032910 15 0.0 0.0 0.00 0.00 0.00 75 1024.1
20260903030909 15 0.0 0.0 0.00 0.00 0.00 75 1024.1
20260903024905 15 0.0 0.0 0.00 0.00 0.00 74 1024.2
20260903023906 15 0.0 0.0 0.00 0.00 0.00 74 1024.4
20260903022908 15 0.0 0.0 0.00 0.00 0.00 74 1024.4
20260903021906 16 0.0 0.0 0.00 0.00 0.00 73 1024.4
20260903020904 16 0.0 0.0 0.00 0.00 0.00 73 1024.3
20260903015904 16 0.0 0.0 0.00 0.00 0.00 73 1024.4
20260903014904 16 0.0 0.0 0.00 0.00 0.00 73 1024.4
20260903013904 16 0.0 0.0 0.00 0.00 0.00 73 1024.4
20260903012904 16 0.0 0.0 0.00 0.00 0.00 73 1024.5
20260903011908 16 0.0 0.0 0.00 0.00 0.00 72 1024.5
20260903005904 16 0.0 0.0 0.00 0.00 0.00 72 1024.4
20260903004906 16 0.0 0.0 0.00 0.00 0.00 72 1024.6
20260903003907 16 0.0 0.0 0.00 0.00 0.00 71 1024.3
20260903002904 16 0.0 0.0 0.00 0.00 0.00 72 1024.4
20260903001904 16 0.0 0.0 0.00 0.00 0.00 72 1024.6
20260903000904 16 0.0 0.0 0.00 0.00 0.00 72 1024.6
20260902235905 16 0.0 0.0 0.00 0.00 0.00 72 1024.6
20260902234904 16 0.0 0.0 0.00 0.00 0.00 72 1024.6
20260902233905 17 0.0 0.0 0.00 0.00 0.00 72 1024.7
20260902232904 17 0.0 0.0 0.00 0.00 0.00 72 1024.8
20260902231903 17 0.0 0.0 0.00 0.00 0.00 72 1024.8
20260902230908 17 0.0 0.0 0.00 0.00 0.00 72 1024.8
20260902224905 17 0.0 0.0 0.00 0.00 0.00 72 1024.6
20260902223904 17 0.0 0.0 0.00 0.00 0.00 71 1024.7
20260902222905 17 0.0 0.0 0.00 0.00 0.00 70 1024.6
20260902221906 17 0.0 0.0 0.00 0.00 0.00 70 1024.7
20260902220906 17 0.0 0.0 0.00 0.00 0.00 70 1024.7
20260902215904 17 0.0 0.0 0.00 0.00 0.00 70 1024.5
20260902214904 17 0.0 0.0 0.00 0.00 0.00 70 1024.4
20260902213908 17 0.0 0.0 0.00 0.00 0.00 69 1023.9
20260902211906 18 0.0 0.0 0.00 0.00 0.00 68 1024.4
20260902210906 18 0.0 0.0 0.00 0.00 0.00 68 1024.3
20260902205905 18 0.0 0.0 0.00 0.00 0.00 67 1024.2
20260902204904 18 0.0 0.0 0.00 0.00 0.00 67 1024.3
20260902203908 18 0.0 0.0 0.00 0.00 0.00 66 1024.5
20260902202907 18 0.0 0.0 0.00 0.00 0.00 66 1024.4
20260902201909 18 0.0 0.0 0.00 0.00 0.00 66 1024.4
20260902195905 18 0.0 0.0 0.00 0.00 0.00 65 1024.5
20260902194905 18 0.0 0.0 0.00 0.00 0.00 65 1024.4
20260902193904 18 0.0 0.0 0.00 0.00 0.00 64 1024.4
20260902192905 19 0.0 0.0 0.00 0.00 0.00 63 1024.3
20260902191905 19 0.0 0.0 0.00 0.00 0.00 62 1024.2
20260902190909 19 0.0 0.0 0.00 0.00 0.00 61 1024.2
20260902184910 20 0.0 0.0 0.00 0.00 0.00 59 1023.9
20260902182904 20 0.0 0.0 0.00 0.00 0.00 57 1021.7
20260902181909 20 0.0 0.0 0.00 0.00 0.00 55 1023.7
20260902175906 21 0.0 0.0 0.00 0.00 0.00 52 1023.5
20260902174905 21 0.0 0.0 0.00 0.00 0.00 50 1023.4
20260902173908 21 0.0 0.0 0.00 0.00 0.00 49 1023.3
20260902171905 21 0.0 0.0 0.00 0.00 0.00 48 1023.2
20260902170905 21 0.0 0.0 0.00 0.00 0.00 47 1023.2
20260902165906 22 0.0 0.0 0.00 0.00 0.00 47 1023.3
20260902164905 22 0.0 0.0 0.00 0.00 0.00 46 1023.1
20260902163906 22 0.0 0.0 0.00 0.00 0.00 45 1023.0
20260902162905 22 0.0 0.0 0.00 0.00 0.00 44 1023.2
20260902161905 22 0.0 0.0 0.00 0.00 0.00 43 1023.2
20260902160905 22 0.0 0.0 0.00 0.00 0.00 41 1023.1
20260902155905 23 0.0 0.0 0.00 0.00 0.00 40 1023.1
20260902154904 23 0.0 0.0 0.00 0.00 0.00 40 1023.1
20260902153904 24 0.0 0.0 0.00 0.00 0.00 40 1023.1
20260902152904 23 0.0 0.0 0.00 0.00 0.00 41 1023.2
20260902151904 23 0.0 0.0 0.00 0.00 0.00 42 1023.1
20260902150909 23 0.0 0.0 0.00 0.00 0.00 43 1023.2
20260902144904 23 0.0 0.0 0.00 0.00 0.00 43 1023.3
20260902143904 23 0.0 0.0 0.00 0.00 0.00 42 1023.3
20260902142905 24 0.0 0.0 0.00 0.00 0.00 41 1023.2
20260902141905 23 0.0 0.0 0.00 0.00 0.00 39 1023.1
20260902140909 24 0.0 0.0 0.00 0.00 0.00 39 1022.9
20260902134905 23 0.0 0.0 0.00 0.00 0.00 41 1023.1
20260902133905 24 0.0 0.0 0.00 0.00 0.00 39 1023.0
20260902132906 25 0.0 0.0 0.00 0.00 0.00 41 1022.9
20260902131910 25 0.0 0.0 0.00 0.00 0.00 41 1023.0
20260902125905 25 0.0 0.0 0.00 0.00 0.00 41 1022.8
20260902124910 24 0.0 0.0 0.00 0.00 0.00 44 1022.9
20260902122907 23 0.0 0.0 0.00 0.00 0.00 45 1023.1
20260902121908 22 0.0 0.0 0.00 0.00 0.00 46 1023.2
20260902120906 22 0.0 0.0 0.00 0.00 0.00 48 1023.3
20260902115910 23 0.0 0.0 0.00 0.00 0.00 46 1023.3
20260902113905 22 0.0 0.0 0.00 0.00 0.00 50 1023.4
20260902112910 22 0.0 0.0 0.00 0.00 0.00 51 1023.4
20260902110906 22 0.0 0.0 0.00 0.00 0.00 53 1023.4
20260902105905 22 0.0 0.0 0.00 0.00 0.00 54 1023.4
20260902104909 21 0.0 0.0 0.00 0.00 0.00 59 1023.7
20260902102909 20 0.0 0.0 0.00 0.00 0.00 64 1023.8
20260902100909 20 0.0 0.0 0.00 0.00 0.00 69 1024.1
20260902094909 18 0.0 0.0 0.00 0.00 0.00 75 1024.0
20260902092904 18 0.0 0.0 0.00 0.00 0.00 78 1024.3